Location: Newark
(54.4000°N, 32.4500°E)
Time: 14:19:08
(UTC+00:00)

Envisat - Pass Details

Date: 18 January 2020
Orbit: 764 x 766 km, 98.1° (Epoch: 28 February)

Event Time Altitude Azimuth Distance (km) Brightness Sun altitude
Rises 16:50:13 0° 207° (SSW) 3,225 6.6 -23.7°
Reaches altitude 10° 16:53:05 10° 223° (SW) 2,304 6.0 -24.2°
Maximum altitude 16:56:51 21° 272° (W) 1,690 5.6 -24.7°
Drops below altitude 10° 17:00:39 10° 320° (NW) 2,317 6.0 -25.3°
Sets 17:03:33 0° 337° (NNW) 3,249 6.5 -25.7°
